Showing default

KSM1-C, 46906

Orbit data source: Space-Track

KSM1-C, 46906 is a payload satellite owned by Kleos Space (LU) in LEO that was launched on Sat, 07 Nov 2020 UTC via a PSLV-DL launch vehicle from the Sirharikota (SRI). Payload-class satellites include a variety of spacecraft equipped with specific instruments for various scientific and technological missions. These include communications satellites like Starlink; space stations such as the ISS; scientific satellites like the Hubble; Earth observation satellites from companies like Planet Labs, Umbra, and HawkEye 360; GPS; miniature CubeSats for education and research; and military/defense satellites.

Loading next visibility...
Identifier
46906, 2020-081B
Orbit
LEO
Country
Flag of UnknownUnknown / LUXE
Related business
Manufacturer
GOMSpace
Mission
Operational Commercial Sigint
Bus & Motor
CUBESAT 6U, Unknown motor
Mass
~10 kg wet, ~10 kg dry
Launch date (UTC)
2020-11-07 (5 years ago)
Launch vehicle
PSLV-DL
Launch site
Sirharikota (SRI)
Object type
Payload
Rocket body
Debris
Shape & HBR
Box, 1.0 m
Radar Cross Section
0.080 m², Small (<0.1 m²)

Expand to show TLE details & history
Last TLE update: 10 hours ago

TLE from 10 hours ago
0 KSM1-C
1 46906U 20081B   25298.53713980  .00013278  00000-0  57983-3 0  9994
2 46906  36.8942  62.3070 0003772  54.7744 305.3357 15.21502225273347
Epoch: 2025-10-25T12:53Z
TLE epoch observation values (Epoch: 2025-10-25T12:53:28.878Z)
Latitude
0.00002°
Longitude
-165.22957°
Altitude
498.917 km
Speed
7.618 km/s
True Right ascension
04h 09m 13s
True Declination
0° 00' 00"
Sunlit
Object was in full shadow at epoch
Visualization orbit readout
Latitude
Unknown
Longitude
Unknown
Altitude
Unknown
Speed
Unknown
Apparent Right ascension
Unknown
Apparent Declination
Unknown
Sunlit
N/A
Visualization observer readout
Local Sidereal Time
18:34:29
Azimuth
Unknown
Elevation
Unknown
Doppler factor
Unknown
Orbital elements
Apogee altitude
506.851 km
Perigee altitude
501.659 km
Semi-major axis
6,882.392 km
Eccentricity
0.00038
Inclination
36.8942°
RAAN
62.307°
Arg. of periapsis
54.7744°
True anomaly
305.30043°
Mean anomaly
305.3357°
Eccentric anomaly
305.31807°
Mean motion
3.80132 °/min
Orbital period
94.7 mins
BSTAR
0.00057983
Loading maneuver chart data...
Computing Atmospheric mass density...
Loading historical data...
Loading historical data...
Loading historical data...
Loading historical data...
Loading historical data...
Loading historical data...
Loading historical data...

Documentation

Showing up to 5 results
|